Flag for Russia Weather for the Past 2 Weeks in Petropavlovsk-Kamchatsky, Russia

Now
-4 °F

Clear.


Feels Like: -19 °F
Forecast: -5 / 16 °F
Wind: 8 mph from North

Location: Petropavlovsk-Kamchatskij

Current Time: Feb 11, 2016 at 4:43:53 AM

Latest Report: Feb 11, 2016 at 4:00 AM


Visibility: N/A

Pressure: 30.01 "Hg

Humidity: 45%

Dew point: -20 °F

Location of Petropavlovsk-KamchatskyLocation

Historic Weather in Petropavlovsk-Kamchatsky — Graph

°F

Petropavlovsk-Kamchatsky Temperature Yesterday

Maximum temperature yesterday: 19 °F (at 5:00 PM)
Minimum temperature yesterday: -6 °F (at 7:30 AM)
Average temperature yesterday: 4 °F

High & Low Weather Summary for the Past Weeks

 TemperatureHumidityPressure
High23 °F (Feb 9, 3:00 PM)86% (Jan 27, 3:00 AM)30.04 "Hg (Jan 27, 3:00 AM)
Low-9 °F (Feb 6, 9:00 AM)17% (Feb 6, 3:00 PM)29.18 "Hg (Jan 28, 11:00 PM)
Average6 °F51%29.57 "Hg
* Reported Jan 27 3:00 AM — Feb 11 3:00 AM, Petropavlovsk-Kamchatsky, Weather by CustomWeather, © 2016

Note: Actual official high and low records may vary slightly from our data, if they occured in-between our weather recording intervals... More about our weather records

Advertising

Petropavlovsk-Kamchatsky Weather History for the Previous 24 Hours

 ConditionsComfort  
Time TempWeatherWind HumidityBarometerVisibility
3:00 AM
Thu, Feb 11
-2 °FClear.8 mph45%30.01 "HgN/A
2:00 AM-2 °FClear.8 mph45%30.01 "HgN/A
1:00 AM-2 °FClear.8 mph45%30.01 "HgN/A
12:00 AM1 °FClear.8 mph42%30.01 "HgN/A
11:00 PM
Wed, Feb 10
-2 °FClear.8 mph45%30.04 "HgN/A
10:00 PM-2 °FClear.3 mph45%30.01 "HgN/A
9:00 PM1 °FClear.3 mph38%30.01 "HgN/A
8:00 PM1 °FClear.3 mph42%30.01 "HgN/A
7:30 PM3 °FClear.1 mph46%29.98 "HgN/A
7:00 PM10 °FClear.3 mph30%29.98 "HgN/A
6:30 PM12 °FClear.1 mph31%29.98 "HgN/A
6:00 PM16 °FClear.1 mph26%29.98 "HgN/A
5:30 PM18 °FClear.No wind24%29.98 "HgN/A
5:00 PM19 °FClear.1 mph22%29.98 "HgN/A
4:30 PM18 °FClear.1 mph24%30.01 "HgN/A
4:00 PM18 °FClear.3 mph24%30.01 "HgN/A
3:30 PM18 °FClear.No wind20%30.01 "HgN/A
3:00 PM18 °FClear.No wind27%30.01 "HgN/A
2:30 PM16 °FClear.3 mph24%30.01 "HgN/A
2:00 PM14 °FClear.3 mph26%30.01 "HgN/A
1:30 PM10 °FClear.6 mph28%30.01 "HgN/A
12:30 PM7 °FClear.6 mph33%30.01 "HgN/A
12:00 PM5 °FClear.8 mph32%30.04 "HgN/A
11:30 AM3 °FClear.8 mph38%30.01 "HgN/A
11:00 AM0 °FClear.10 mph41%30.01 "HgN/A
10:30 AM-2 °FClear.8 mph41%30.01 "HgN/A
10:00 AM-4 °FClear.6 mph41%30.01 "HgN/A
9:30 AM-6 °FClear.6 mph49%30.01 "HgN/A
9:00 AM-6 °FClear.8 mph49%30.01 "HgN/A
8:30 AM-6 °FClear.8 mph49%30.01 "HgN/A
8:00 AM-6 °FClear.8 mph49%30.01 "HgN/A
7:30 AM-6 °FClear.8 mph49%30.01 "HgN/A
7:00 AM-4 °FClear.10 mph45%29.98 "HgN/A
6:00 AM-4 °FClear.10 mph45%29.98 "HgN/A
5:00 AM-2 °FClear.8 mph45%29.98 "HgN/A
4:00 AM0 °FClear.10 mph45%29.95 "HgN/A
Weather by CustomWeather, © 2016

See weather overviewHow to use our weather pages